Tracking 25686 objects as of 25-May-2022
HD Live streaming from Space Station
objects crossing your sky now

ERS 2 DEB

Track ERS 2 DEB now!
10-day predictions


NORAD ID: 35393
Int'l Code: 1995-021G
Perigee: 752.2 km
Apogee: 761.4 km
Inclination: 98.3 °
Period: 99.8 minutes
Semi major axis: 7127 km
RCS: 0.0072 m2 (small)
Launch date: April 21, 1995
Source: European Space Agency (ESA)
Launch site: FRENCH GUIANA (FRGUI)

Note: This is SATELLITE DEBRIS
aabbcc
Your satellite tracking list
Your tracking list is empty




NASA's NSSDC Master Catalog

Two Line Element Set (TLE):
1 35393U 95021G   22144.85962789  .00002294  00000-0  70200-3 0  9996
2 35393  98.3445 105.7733 0006447 112.1588 302.5883 14.42689355987360
Source of the keplerian elements: AFSPC